Time,TemperatureF,DewpointF,PressureIn,WindDirection,WindDirectionDegrees,WindSpeedMPH,WindSpeedGustMPH,Humidity,HourlyPrecipIn,Conditions,Clouds,dailyrainin,SoftwareType,DateUTC
2013-01-16 00:02:00,28.0,21.0,-100.00,NNW,347,6.0,11.0,75,0.00,,,-99.99,,2013-01-16 07:02:00,
2013-01-16 00:11:00,28.0,21.0,-100.00,NW,315,4.0,9.0,75,0.00,,,-99.99,,2013-01-16 07:11:00,
2013-01-16 00:22:00,29.0,21.0,-100.00,NNE,13,1.0,4.0,72,0.00,,,-99.99,,2013-01-16 07:22:00,
2013-01-16 00:32:00,29.0,20.0,-100.00,NE,37,3.0,6.0,68,0.00,,,-99.99,,2013-01-16 07:32:00,
2013-01-16 00:42:00,28.0,20.0,-100.00,NNE,20,4.0,7.0,72,0.00,,,-99.99,,2013-01-16 07:42:00,
2013-01-16 00:52:00,28.0,20.0,-100.00,NNE,25,4.0,6.0,72,0.00,,,-99.99,,2013-01-16 07:52:00,
2013-01-16 01:01:00,28.0,20.0,-100.00,NNE,17,4.0,6.0,71,0.00,,,-99.99,,2013-01-16 08:01:00,
2013-01-16 01:11:00,27.0,20.0,-100.00,NNE,13,4.0,7.0,72,0.00,,,-99.99,,2013-01-16 08:11:00,
2013-01-16 01:22:00,27.0,20.0,-100.00,NW,323,3.0,6.0,74,0.00,,,-99.99,,2013-01-16 08:22:00,
2013-01-16 01:32:00,25.0,19.0,-100.00,NNW,343,4.0,6.0,76,0.00,,,-99.99,,2013-01-16 08:32:00,
2013-01-16 01:42:00,25.0,18.0,-100.00,North,349,4.0,6.0,75,0.00,,,-99.99,,2013-01-16 08:42:00,
2013-01-16 01:52:00,26.0,19.0,-100.00,NNW,347,3.0,6.0,74,0.00,,,-99.99,,2013-01-16 08:52:00,
2013-01-16 02:02:00,26.0,18.0,-100.00,North,352,4.0,7.0,73,0.00,,,-99.99,,2013-01-16 09:02:00,
2013-01-16 02:11:00,26.0,19.0,-100.00,NNW,342,4.0,7.0,75,0.00,,,-99.99,,2013-01-16 09:11:00,
2013-01-16 02:22:00,27.0,19.0,-100.00,NW,305,4.0,6.0,72,0.00,,,-99.99,,2013-01-16 09:22:00,
2013-01-16 02:32:00,28.0,19.0,-100.00,NW,326,5.0,9.0,71,0.00,,,-99.99,,2013-01-16 09:32:00,
2013-01-16 02:42:00,28.0,19.0,-100.00,NNW,335,4.0,7.0,70,0.00,,,-99.99,,2013-01-16 09:42:00,
2013-01-16 02:52:00,29.0,20.0,-100.00,NNW,337,2.0,7.0,69,0.00,,,-99.99,,2013-01-16 09:52:00,
2013-01-16 03:02:00,27.0,19.0,-100.00,NNW,343,4.0,7.0,71,0.00,,,-99.99,,2013-01-16 10:02:00,
2013-01-16 03:11:00,27.0,19.0,-100.00,NNW,332,3.0,6.0,73,0.00,,,-99.99,,2013-01-16 10:11:00,
2013-01-16 03:22:00,28.0,19.0,-100.00,WNW,288,2.0,5.0,70,0.00,,,-99.99,,2013-01-16 10:22:00,
2013-01-16 03:32:00,29.0,20.0,-100.00,West,261,2.0,4.0,67,0.00,,,-99.99,,2013-01-16 10:32:00,
2013-01-16 03:42:00,29.0,19.0,-100.00,SSW,209,1.0,4.0,67,0.00,,,-99.99,,2013-01-16 10:42:00,
2013-01-16 03:52:00,29.0,19.0,-100.00,ENE,76,0.0,1.0,66,0.00,,,-99.99,,2013-01-16 10:52:00,
2013-01-16 04:01:00,28.0,18.0,-100.00,NNE,28,1.0,3.0,67,0.00,,,-99.99,,2013-01-16 11:01:00,
2013-01-16 04:11:00,26.0,18.0,-100.00,North,356,1.0,4.0,72,0.00,,,-99.99,,2013-01-16 11:11:00,
2013-01-16 04:22:00,26.0,18.0,-100.00,NW,312,4.0,7.0,73,0.00,,,-99.99,,2013-01-16 11:22:00,
2013-01-16 04:32:00,27.0,19.0,-100.00,NW,319,3.0,7.0,71,0.00,,,-99.99,,2013-01-16 11:32:00,
2013-01-16 04:42:00,28.0,18.0,-100.00,NW,319,3.0,6.0,66,0.00,,,-99.99,,2013-01-16 11:42:00,
2013-01-16 04:52:00,28.0,19.0,-100.00,NW,318,3.0,7.0,67,0.00,,,-99.99,,2013-01-16 11:52:00,
2013-01-16 05:02:00,29.0,19.0,-100.00,North,360,1.0,3.0,65,0.00,,,-99.99,,2013-01-16 12:02:00,
2013-01-16 05:12:00,29.0,19.0,-100.00,North,10,1.0,2.0,64,0.00,,,-99.99,,2013-01-16 12:12:00,
2013-01-16 05:22:00,30.0,19.0,-100.00,NW,304,1.0,3.0,62,0.00,,,-99.99,,2013-01-16 12:22:00,
2013-01-16 05:32:00,29.0,18.0,-100.00,NE,38,1.0,3.0,64,0.00,,,-99.99,,2013-01-16 12:32:00,
2013-01-16 05:42:00,31.0,19.0,-100.00,SSE,161,2.0,4.0,61,0.00,,,-99.99,,2013-01-16 12:42:00,
2013-01-16 05:52:00,27.0,18.0,-100.00,NE,42,1.0,5.0,67,0.00,,,-99.99,,2013-01-16 12:52:00,
2013-01-16 06:02:00,28.0,18.0,-100.00,WNW,302,2.0,4.0,66,0.00,,,-99.99,,2013-01-16 13:02:00,
2013-01-16 06:12:00,27.0,18.0,-100.00,WNW,284,1.0,3.0,67,0.00,,,-99.99,,2013-01-16 13:12:00,
2013-01-16 06:22:00,28.0,17.0,-100.00,North,11,1.0,3.0,63,0.00,,,-99.99,,2013-01-16 13:22:00,
2013-01-16 06:32:00,27.0,17.0,-100.00,WNW,302,2.0,7.0,65,0.00,,,-99.99,,2013-01-16 13:32:00,
2013-01-16 06:42:00,29.0,18.0,-100.00,WNW,298,2.0,6.0,63,0.00,,,-99.99,,2013-01-16 13:42:00,
2013-01-16 06:52:00,28.0,18.0,-100.00,NW,326,3.0,6.0,64,0.00,,,-99.99,,2013-01-16 13:52:00,
2013-01-16 07:02:00,28.0,18.0,-100.00,North,349,3.0,6.0,64,0.00,,,-99.99,,2013-01-16 14:02:00,
2013-01-16 07:11:00,28.0,17.0,-100.00,North,8,4.0,7.0,64,0.00,,,-99.99,,2013-01-16 14:11:00,
2013-01-16 07:22:00,30.0,17.0,-100.00,North,354,2.0,6.0,60,0.00,,,-99.99,,2013-01-16 14:22:00,
2013-01-16 07:32:00,40.0,17.0,-100.00,WNW,289,12.0,22.0,38,0.00,,,-99.99,,2013-01-16 14:32:00,
2013-01-16 07:42:00,41.0,17.0,-100.00,West,265,21.0,29.0,38,0.00,,,-99.99,,2013-01-16 14:42:00,
2013-01-16 07:52:00,41.0,17.0,-100.00,West,271,19.0,26.0,38,0.00,,,-99.99,,2013-01-16 14:52:00,
2013-01-16 08:02:00,41.0,16.0,-100.00,West,270,20.0,27.0,36,0.00,,,-99.99,,2013-01-16 15:02:00,
2013-01-16 08:11:00,41.0,15.0,-100.00,West,267,21.0,27.0,35,0.00,,,-99.99,,2013-01-16 15:11:00,
2013-01-16 08:22:00,40.0,17.0,-100.00,West,264,20.0,24.0,38,0.00,,,-99.99,,2013-01-16 15:22:00,
2013-01-16 08:32:00,41.0,17.0,-100.00,West,265,21.0,28.0,37,0.00,,,-99.99,,2013-01-16 15:32:00,
2013-01-16 08:42:00,42.0,17.0,-100.00,West,263,21.0,30.0,36,0.00,,,-99.99,,2013-01-16 15:42:00,
2013-01-16 08:52:00,42.0,15.0,-100.00,West,265,20.0,28.0,34,0.00,,,-99.99,,2013-01-16 15:52:00,
2013-01-16 09:02:00,43.0,15.0,-100.00,West,267,21.0,27.0,31,0.00,,,-99.99,,2013-01-16 16:02:00,
2013-01-16 09:11:00,43.0,14.0,-100.00,West,268,20.0,27.0,31,0.00,,,-99.99,,2013-01-16 16:11:00,
2013-01-16 09:22:00,43.0,17.0,-100.00,West,274,20.0,27.0,34,0.00,,,-99.99,,2013-01-16 16:22:00,
2013-01-16 09:32:00,42.0,18.0,-100.00,West,278,19.0,25.0,38,0.00,,,-99.99,,2013-01-16 16:32:00,
2013-01-16 09:52:00,43.0,18.0,-100.00,West,275,19.0,25.0,37,0.00,,,-99.99,,2013-01-16 16:52:00,
2013-01-16 10:02:00,42.0,18.0,-100.00,WNW,282,15.0,22.0,38,0.00,,,-99.99,,2013-01-16 17:02:00,
2013-01-16 10:12:00,43.0,20.0,-100.00,WNW,284,16.0,24.0,39,0.00,,,-99.99,,2013-01-16 17:12:00,
2013-01-16 10:22:00,42.0,21.0,-100.00,WNW,284,15.0,21.0,43,0.00,,,-99.99,,2013-01-16 17:22:00,
2013-01-16 10:32:00,42.0,19.0,-100.00,WNW,282,17.0,28.0,40,0.00,,,-99.99,,2013-01-16 17:32:00,
2013-01-16 10:42:00,44.0,16.0,-100.00,West,278,22.0,32.0,32,0.00,,,-99.99,,2013-01-16 17:42:00,
2013-01-16 10:52:00,43.0,17.0,-100.00,West,275,24.0,34.0,34,0.00,,,-99.99,,2013-01-16 17:52:00,
2013-01-16 11:02:00,44.0,18.0,-100.00,West,272,24.0,30.0,35,0.00,,,-99.99,,2013-01-16 18:02:00,
2013-01-16 11:12:00,44.0,17.0,-100.00,West,272,21.0,27.0,34,0.00,,,-99.99,,2013-01-16 18:12:00,
2013-01-16 11:22:00,43.0,19.0,-100.00,West,275,21.0,29.0,38,0.00,,,-99.99,,2013-01-16 18:22:00,
2013-01-16 11:32:00,43.0,19.0,-100.00,West,277,19.0,25.0,38,0.00,,,-99.99,,2013-01-16 18:32:00,
2013-01-16 11:42:00,44.0,19.0,-100.00,West,274,21.0,28.0,37,0.00,,,-99.99,,2013-01-16 18:42:00,
2013-01-16 11:52:00,44.0,19.0,-100.00,West,275,22.0,29.0,36,0.00,,,-99.99,,2013-01-16 18:52:00,
2013-01-16 12:02:00,44.0,19.0,-100.00,West,272,21.0,26.0,37,0.00,,,-99.99,,2013-01-16 19:02:00,
2013-01-16 12:12:00,44.0,18.0,-100.00,West,272,21.0,26.0,34,0.00,,,-99.99,,2013-01-16 19:12:00,
2013-01-16 12:22:00,44.0,17.0,-100.00,West,272,21.0,24.0,34,0.00,,,-99.99,,2013-01-16 19:22:00,
2013-01-16 12:32:00,43.0,19.0,-100.00,West,275,20.0,26.0,38,0.00,,,-99.99,,2013-01-16 19:32:00,
2013-01-16 12:42:00,43.0,20.0,-100.00,West,274,21.0,26.0,38,0.00,,,-99.99,,2013-01-16 19:42:00,
2013-01-16 12:52:00,43.0,18.0,-100.00,West,275,19.0,24.0,37,0.00,,,-99.99,,2013-01-16 19:52:00,
2013-01-16 13:02:00,43.0,21.0,-100.00,West,274,19.0,26.0,40,0.00,,,-99.99,,2013-01-16 20:02:00,
2013-01-16 13:11:00,42.0,22.0,-100.00,West,280,17.0,26.0,45,0.00,,,-99.99,,2013-01-16 20:11:00,
2013-01-16 13:22:00,41.0,22.0,-100.00,WNW,285,15.0,19.0,47,0.00,,,-99.99,,2013-01-16 20:22:00,
2013-01-16 13:32:00,42.0,22.0,-100.00,WNW,284,17.0,22.0,45,0.00,,,-99.99,,2013-01-16 20:32:00,
2013-01-16 13:42:00,42.0,22.0,-100.00,WNW,282,17.0,22.0,45,0.00,,,-99.99,,2013-01-16 20:42:00,
2013-01-16 13:52:00,42.0,22.0,-100.00,WNW,284,16.0,19.0,45,0.00,,,-99.99,,2013-01-16 20:52:00,
2013-01-16 14:02:00,42.0,21.0,-100.00,WNW,282,16.0,19.0,44,0.00,,,-99.99,,2013-01-16 21:02:00,
2013-01-16 14:12:00,42.0,21.0,-100.00,WNW,284,15.0,19.0,43,0.00,,,-99.99,,2013-01-16 21:12:00,
2013-01-16 14:22:00,42.0,22.0,-100.00,WNW,288,12.0,17.0,45,0.00,,,-99.99,,2013-01-16 21:22:00,
2013-01-16 14:32:00,41.0,24.0,-100.00,WNW,285,10.0,13.0,49,0.00,,,-99.99,,2013-01-16 21:32:00,
2013-01-16 14:42:00,41.0,23.0,-100.00,WNW,285,9.0,13.0,49,0.00,,,-99.99,,2013-01-16 21:42:00,
2013-01-16 14:52:00,41.0,23.0,-100.00,WNW,292,8.0,11.0,48,0.00,,,-99.99,,2013-01-16 21:52:00,
2013-01-16 15:02:00,41.0,23.0,-100.00,WNW,291,6.0,9.0,48,0.00,,,-99.99,,2013-01-16 22:02:00,
2013-01-16 15:11:00,42.0,22.0,-100.00,WNW,287,7.0,13.0,46,0.00,,,-99.99,,2013-01-16 22:11:00,
2013-01-16 15:22:00,41.0,22.0,-100.00,WNW,288,10.0,15.0,47,0.00,,,-99.99,,2013-01-16 22:22:00,
2013-01-16 15:32:00,40.0,23.0,-100.00,WNW,285,8.0,12.0,49,0.00,,,-99.99,,2013-01-16 22:32:00,
2013-01-16 15:42:00,41.0,23.0,-100.00,WNW,284,9.0,11.0,48,0.00,,,-99.99,,2013-01-16 22:42:00,
2013-01-16 15:52:00,40.0,23.0,-100.00,West,281,8.0,11.0,50,0.00,,,-99.99,,2013-01-16 22:52:00,
2013-01-16 16:02:00,40.0,23.0,-100.00,WNW,288,7.0,9.0,51,0.00,,,-99.99,,2013-01-16 23:02:00,
2013-01-16 16:11:00,39.0,23.0,-100.00,WNW,284,7.0,10.0,52,0.00,,,-99.99,,2013-01-16 23:11:00,
2013-01-16 16:22:00,39.0,22.0,-100.00,West,281,7.0,10.0,50,0.00,,,-99.99,,2013-01-16 23:22:00,
2013-01-16 16:32:00,38.0,22.0,-100.00,WNW,284,6.0,9.0,52,0.00,,,-99.99,,2013-01-16 23:32:00,
2013-01-16 16:42:00,39.0,22.0,-100.00,WNW,294,5.0,7.0,51,0.00,,,-99.99,,2013-01-16 23:42:00,
2013-01-16 16:52:00,38.0,22.0,-100.00,WNW,301,4.0,7.0,51,0.00,,,-99.99,,2013-01-16 23:52:00,
2013-01-16 17:02:00,38.0,21.0,-100.00,West,278,4.0,7.0,51,0.00,,,-99.99,,2013-01-17 00:02:00,
2013-01-16 17:11:00,38.0,21.0,-100.00,West,281,6.0,7.0,51,0.00,,,-99.99,,2013-01-17 00:11:00,
2013-01-16 17:22:00,37.0,21.0,-100.00,WNW,301,4.0,6.0,51,0.00,,,-99.99,,2013-01-17 00:22:00,
2013-01-16 17:32:00,37.0,20.0,-100.00,NW,319,1.0,4.0,51,0.00,,,-99.99,,2013-01-17 00:32:00,
2013-01-16 17:42:00,37.0,20.0,-100.00,NW,311,1.0,5.0,50,0.00,,,-99.99,,2013-01-17 00:42:00,
2013-01-16 17:52:00,36.0,20.0,-100.00,WNW,299,3.0,5.0,54,0.00,,,-99.99,,2013-01-17 00:52:00,
2013-01-16 18:01:00,36.0,20.0,-100.00,NW,312,3.0,4.0,53,0.00,,,-99.99,,2013-01-17 01:01:00,
2013-01-16 18:11:00,36.0,20.0,-100.00,NW,313,2.0,4.0,52,0.00,,,-99.99,,2013-01-17 01:11:00,
2013-01-16 18:22:00,34.0,19.0,-100.00,NNW,340,3.0,5.0,53,0.00,,,-99.99,,2013-01-17 01:22:00,
2013-01-16 18:32:00,34.0,19.0,-100.00,NNE,25,4.0,7.0,55,0.00,,,-99.99,,2013-01-17 01:32:00,
2013-01-16 18:42:00,34.0,19.0,-100.00,NNE,30,6.0,9.0,55,0.00,,,-99.99,,2013-01-17 01:42:00,
2013-01-16 18:52:00,32.0,19.0,-100.00,NNE,23,4.0,7.0,58,0.00,,,-99.99,,2013-01-17 01:52:00,
2013-01-16 19:01:00,31.0,19.0,-100.00,NNE,21,6.0,7.0,60,0.00,,,-99.99,,2013-01-17 02:01:00,
2013-01-16 19:11:00,31.0,18.0,-100.00,NNE,14,5.0,7.0,60,0.00,,,-99.99,,2013-01-17 02:11:00,
2013-01-16 19:22:00,32.0,18.0,-100.00,North,4,4.0,6.0,58,0.00,,,-99.99,,2013-01-17 02:22:00,
2013-01-16 19:32:00,31.0,18.0,-100.00,NNW,346,2.0,4.0,60,0.00,,,-99.99,,2013-01-17 02:32:00,
2013-01-16 19:42:00,31.0,18.0,-100.00,NNW,346,2.0,4.0,60,0.00,,,-99.99,,2013-01-17 02:42:00,
2013-01-16 19:52:00,31.0,18.0,-100.00,NNW,346,2.0,4.0,60,0.00,,,-99.99,,2013-01-17 02:52:00,
2013-01-16 20:02:00,32.0,18.0,-100.00,North,350,3.0,6.0,56,0.00,,,-99.99,,2013-01-17 03:02:00,
2013-01-16 20:11:00,33.0,18.0,-100.00,NNW,343,3.0,6.0,55,0.00,,,-99.99,,2013-01-17 03:11:00,
2013-01-16 20:22:00,34.0,18.0,-100.00,NW,313,4.0,6.0,51,0.00,,,-99.99,,2013-01-17 03:22:00,
2013-01-16 20:32:00,33.0,18.0,-100.00,NW,304,5.0,6.0,53,0.00,,,-99.99,,2013-01-17 03:32:00,
2013-01-16 20:42:00,32.0,17.0,-100.00,WNW,294,4.0,7.0,54,0.00,,,-99.99,,2013-01-17 03:42:00,
2013-01-16 20:52:00,32.0,18.0,-100.00,WNW,295,4.0,6.0,55,0.00,,,-99.99,,2013-01-17 03:52:00,
2013-01-16 21:02:00,33.0,18.0,-100.00,NW,305,3.0,4.0,53,0.00,,,-99.99,,2013-01-17 04:02:00,
2013-01-16 21:11:00,32.0,17.0,-100.00,NW,318,2.0,4.0,54,0.00,,,-99.99,,2013-01-17 04:11:00,
2013-01-16 21:22:00,32.0,18.0,-100.00,NW,309,2.0,4.0,55,0.00,,,-99.99,,2013-01-17 04:22:00,
2013-01-16 21:32:00,32.0,17.0,-100.00,NW,319,2.0,3.0,55,0.00,,,-99.99,,2013-01-17 04:32:00,
2013-01-16 21:42:00,32.0,18.0,-100.00,WNW,298,2.0,4.0,55,0.00,,,-99.99,,2013-01-17 04:42:00,
2013-01-16 21:52:00,31.0,17.0,-100.00,NW,323,2.0,3.0,55,0.00,,,-99.99,,2013-01-17 04:52:00,
2013-01-16 22:02:00,30.0,17.0,-100.00,NW,326,2.0,3.0,58,0.00,,,-99.99,,2013-01-17 05:02:00,
2013-01-16 22:12:00,30.0,17.0,-100.00,NW,306,2.0,3.0,58,0.00,,,-99.99,,2013-01-17 05:12:00,
2013-01-16 22:22:00,31.0,17.0,-100.00,NW,313,2.0,4.0,56,0.00,,,-99.99,,2013-01-17 05:22:00,
2013-01-16 22:32:00,33.0,18.0,-100.00,WNW,299,3.0,4.0,54,0.00,,,-99.99,,2013-01-17 05:32:00,
2013-01-16 22:42:00,33.0,18.0,-100.00,WNW,287,3.0,4.0,54,0.00,,,-99.99,,2013-01-17 05:42:00,
2013-01-16 22:52:00,33.0,18.0,-100.00,WNW,284,3.0,4.0,54,0.00,,,-99.99,,2013-01-17 05:52:00,
2013-01-16 23:02:00,27.0,16.0,-100.00,NW,316,2.0,6.0,63,0.00,,,-99.99,,2013-01-17 06:02:00,
2013-01-16 23:11:00,29.0,17.0,-100.00,NNW,347,2.0,4.0,61,0.00,,,-99.99,,2013-01-17 06:11:00,
2013-01-16 23:22:00,29.0,17.0,-100.00,North,350,3.0,5.0,61,0.00,,,-99.99,,2013-01-17 06:22:00,
2013-01-16 23:32:00,29.0,17.0,-100.00,NNW,336,2.0,5.0,60,0.00,,,-99.99,,2013-01-17 06:32:00,
2013-01-16 23:42:00,29.0,17.0,-100.00,NNW,333,2.0,4.0,60,0.00,,,-99.99,,2013-01-17 06:42:00,
2013-01-16 23:52:00,29.0,17.0,-100.00,NW,323,2.0,6.0,61,0.00,,,-99.99,,2013-01-17 06:52:00,